Theta_e
340 343 341 342 346 348 352 354 359 361 360 357 358 362 361 364 363 364 362 358 359 357 356 353 348 349 355 356 354 353 353 353 352 352 351 348 345 347 344 342 345 345 346 348 350 350 349 349 347 345 342 340 344 346 348 349 349 349 349 348 347 346 347 349 351 349 348 348 347 345 346 346 346 349 351 351 350 350 350 350 350 349 348 349 351 352 352 353 353 353 353 353 350 350 351 351 352
340 341 342 347 347 351 359 357 361 361 358 356 358 363 364 364 364 363 360 361 361 358 356 349 348 355 357 355 355 354 353 351 350 349 348 347 348 348 343 343 345 344 347 348 349 349 350 350 347 346 341 340 344 346 348 349 349 350 350 350 350 350 350 351 351 349 348 347 346 345 345 347 347 347 350 351 351 349 350 350 351 350 350 350 350 351 352 352 353 353 352 352 352 351 351 351 351
338 342 345 348 348 353 360 359 360 357 356 356 358 365 367 367 366 362 361 365 362 354 353 348 352 360 356 356 355 357 354 347 346 346 347 348 348 348 345 344 344 345 347 347 348 349 349 350 347 346 343 343 344 345 347 348 348 348 349 349 349 350 351 351 352 350 349 347 347 346 345 347 348 348 349 351 351 350 349 349 350 350 350 350 351 351 351 351 352 353 353 352 352 352 352 352 352
340 345 347 351 356 358 362 365 364 358 356 355 356 365 370 368 367 364 364 362 355 350 352 350 354 355 357 360 355 357 355 347 347 346 348 347 347 347 345 344 346 347 347 345 348 349 348 349 348 345 344 345 345 346 348 348 348 347 347 348 349 349 349 352 352 349 349 348 347 346 346 347 347 348 349 350 351 350 349 349 350 350 350 351 352 352 352 351 351 351 351 351 352 352 352 352 351
344 348 348 351 362 362 363 366 364 360 358 358 359 366 370 368 367 366 363 357 354 353 351 352 356 353 354 355 351 357 353 347 347 346 348 347 346 346 345 345 346 348 348 348 348 349 348 348 348 346 345 345 345 346 348 349 349 349 349 349 349 349 350 351 351 350 349 348 347 347 348 347 347 348 349 350 350 349 349 349 349 349 350 352 352 352 351 351 351 350 350 349 350 351 351 351 350
346 348 348 351 358 358 361 362 360 362 363 367 366 368 370 368 369 367 361 357 357 355 352 354 355 354 353 349 349 352 348 347 347 345 348 347 347 346 345 345 346 347 349 349 349 348 347 347 346 345 346 346 345 347 349 350 350 350 350 350 349 350 351 350 351 351 350 348 348 349 348 347 348 347 347 350 351 349 349 349 349 349 350 351 351 350 351 351 350 350 348 348 348 349 350 351 350
347 352 353 357 359 358 364 362 360 365 366 368 369 370 370 368 368 367 361 356 356 356 355 354 350 357 357 350 351 349 346 348 346 346 348 347 347 346 345 345 345 347 347 348 348 347 348 347 347 347 347 345 344 348 349 351 351 351 351 351 351 351 351 351 352 351 351 349 347 349 349 348 349 348 347 349 351 350 349 349 349 350 350 351 351 350 351 352 350 349 349 349 349 349 350 350 350
348 356 359 362 364 363 364 363 363 367 365 364 366 368 367 367 368 366 361 356 357 356 354 352 351 363 358 350 354 351 348 347 345 347 348 347 346 347 345 344 346 347 346 347 347 348 348 348 349 347 345 343 345 349 350 352 352 351 352 351 352 352 351 352 352 352 351 348 346 348 349 348 348 348 348 349 351 350 350 349 349 350 350 351 351 350 351 352 351 351 350 349 350 350 350 350 349
349 355 360 362 365 364 362 363 364 367 367 363 363 366 366 366 369 366 360 358 356 355 354 352 355 365 357 351 355 351 350 348 346 348 349 347 345 346 346 344 345 347 347 347 347 347 348 348 348 345 343 345 347 349 350 351 351 350 350 350 353 352 351 351 352 352 349 346 348 349 348 348 348 349 349 349 350 350 350 350 350 351 350 351 352 351 352 351 350 350 350 350 350 350 350 350 347
353 357 360 362 363 360 358 362 363 366 365 363 363 364 366 365 370 366 359 359 355 355 356 353 357 361 354 353 354 351 351 348 347 350 349 347 344 346 346 344 344 346 347 347 347 348 349 348 345 343 344 348 349 350 350 350 350 350 349 350 351 351 350 350 351 351 348 347 349 349 348 348 350 350 349 349 350 350 350 351 351 351 351 352 352 353 352 351 350 350 350 350 350 349 350 349 346
358 359 358 361 361 356 357 361 364 367 364 363 364 361 363 365 368 365 359 359 357 358 356 355 356 354 353 354 354 351 351 349 349 351 349 347 345 345 345 344 344 345 347 346 346 349 348 345 342 343 346 349 349 349 350 349 349 349 349 350 350 350 351 352 351 351 348 347 349 349 347 348 350 350 349 349 350 350 350 351 351 352 352 352 352 353 351 349 349 348 350 350 349 349 348 348 347
360 360 359 361 360 359 362 363 364 367 364 363 364 361 361 365 365 361 360 360 357 356 354 356 355 351 354 356 354 351 350 350 350 350 350 348 346 345 345 345 346 345 345 346 348 348 346 343 343 346 348 350 349 350 350 349 348 348 349 350 351 351 352 353 352 352 350 348 349 349 348 348 350 351 351 351 351 351 350 351 351 352 352 350 352 352 349 348 348 347 347 349 350 349 348 348 348
359 362 362 363 363 366 364 363 364 365 365 366 365 361 361 366 365 359 360 359 356 356 354 354 352 351 355 354 353 350 350 351 350 350 349 349 347 347 345 345 346 346 345 347 348 346 343 344 346 349 350 350 350 351 350 349 348 349 350 350 351 352 352 353 352 352 350 348 348 348 349 349 350 351 351 352 352 351 350 351 351 352 351 350 352 351 348 348 347 346 347 348 349 349 349 348 348
357 361 362 363 365 367 365 363 363 362 365 367 363 361 362 366 365 357 358 358 357 357 353 350 348 353 354 353 354 350 350 351 350 351 350 350 349 347 346 346 347 347 347 347 347 344 344 346 348 351 351 350 350 351 351 349 348 350 351 350 351 352 352 353 352 353 351 350 348 348 350 349 349 352 351 351 351 351 351 351 351 352 351 351 352 349 348 348 348 349 349 348 348 348 348 348 348
352 362 364 365 364 363 364 364 363 362 365 366 361 361 362 363 363 357 357 359 358 353 350 349 347 353 355 353 354 351 350 351 350 351 351 351 350 348 347 347 348 348 348 347 346 344 345 347 349 351 350 349 350 350 351 350 349 349 350 351 351 351 352 352 352 352 351 351 350 350 350 348 350 352 352 351 351 351 351 351 351 352 352 351 348 346 349 351 352 351 351 349 348 349 349 350 350
354 362 364 364 362 361 364 364 363 364 366 364 360 361 361 362 364 361 359 359 355 350 351 352 349 352 353 351 352 350 351 351 351 352 351 351 351 350 349 348 349 349 349 347 345 345 347 348 349 350 350 349 349 350 349 349 350 349 350 351 350 351 351 352 352 351 352 352 352 350 349 349 350 351 352 351 351 351 351 352 351 351 351 348 343 345 350 351 351 351 351 350 350 350 351 351 351
358 361 363 362 361 361 364 366 365 365 366 363 361 362 361 364 366 363 359 356 353 352 353 352 349 348 349 349 350 350 351 351 351 352 351 352 351 351 350 350 350 349 349 347 345 345 347 348 349 350 350 349 349 349 349 349 349 349 350 351 350 351 351 352 351 351 351 351 351 350 349 349 348 350 351 351 351 351 351 352 352 351 350 345 343 347 350 350 349 350 351 350 349 350 350 351 351
360 363 363 361 364 365 364 366 364 364 365 363 362 362 363 364 363 360 356 354 354 354 353 350 349 348 349 350 350 350 351 351 351 352 351 351 351 350 350 351 350 349 348 347 346 346 346 348 349 349 350 349 349 349 348 348 348 348 349 351 351 351 351 351 351 350 351 351 350 349 348 347 347 348 349 350 350 350 351 351 352 351 349 346 347 348 348 348 348 349 350 350 349 349 350 350 350
360 364 362 364 369 365 362 365 364 363 363 362 361 362 364 363 362 360 357 356 354 356 353 351 351 350 350 350 351 351 351 351 350 350 350 350 350 350 350 350 350 349 348 348 348 348 347 347 348 349 348 348 349 348 348 348 348 348 348 350 351 351 351 351 350 350 350 350 349 347 347 347 346 347 349 349 350 351 351 351 351 350 349 347 347 348 348 348 348 349 350 350 348 348 348 349 349
357 360 363 370 369 363 361 364 366 364 360 362 363 364 364 363 366 363 358 356 355 356 354 352 354 352 350 350 350 351 350 350 350 349 349 349 349 349 349 349 350 350 349 349 349 349 348 347 348 348 348 347 348 348 348 349 348 348 348 350 351 351 351 351 351 350 350 348 345 345 346 347 347 348 349 350 350 351 351 351 351 351 349 347 346 346 348 349 349 349 349 347 347 346 347 348 349
357 358 365 373 367 366 366 365 365 361 359 362 363 366 364 364 369 361 354 358 358 355 353 352 353 352 350 350 350 351 350 350 349 349 348 348 348 348 349 349 350 349 349 350 350 349 348 346 347 348 348 348 348 348 348 349 348 348 348 350 351 351 351 351 351 350 349 346 344 344 346 347 348 348 348 349 350 351 351 351 351 350 348 347 345 344 345 346 347 347 347 346 345 346 347 348 350
358 358 364 370 366 367 367 363 363 359 360 363 364 365 361 363 367 358 353 358 357 353 351 351 350 350 350 349 350 350 350 349 349 348 348 347 347 347 348 349 350 349 349 350 349 349 348 346 346 348 348 347 347 348 349 348 348 348 348 350 351 350 350 350 351 349 348 346 344 344 347 349 348 348 348 349 350 350 350 350 349 347 346 345 344 343 344 343 344 345 346 346 345 345 347 348 349
361 362 361 363 363 366 365 361 360 360 361 363 363 362 361 363 364 358 354 356 356 352 349 349 349 349 350 350 350 350 349 349 349 348 347 347 347 347 347 348 350 349 349 350 349 349 347 346 347 348 348 348 348 347 349 348 347 348 347 349 350 350 350 349 350 348 347 347 345 345 348 349 348 348 349 349 350 350 349 348 347 346 344 344 343 343 342 342 343 344 346 347 346 345 345 347 348
360 365 364 363 364 364 362 360 360 362 363 363 363 362 363 363 360 359 358 357 357 354 350 349 350 350 350 350 350 349 349 349 348 348 347 346 346 346 347 348 350 349 350 350 349 349 347 347 349 349 348 348 347 347 347 347 346 347 348 349 350 350 349 349 349 348 347 347 346 346 347 348 348 347 348 349 349 348 347 347 346 345 344 343 343 343 343 343 343 343 346 347 346 346 346 347 348
358 363 364 363 363 361 360 359 361 364 364 363 363 363 363 361 360 361 360 357 356 352 349 349 349 350 350 350 349 349 349 349 349 348 347 346 346 347 347 348 349 350 351 350 350 349 347 348 350 349 349 348 347 347 346 346 346 347 347 348 349 348 348 348 349 348 347 347 346 346 347 347 347 345 345 346 347 346 346 345 345 344 343 343 343 343 343 343 343 344 346 346 346 346 346 347 348
360 364 363 361 361 359 360 361 362 363 363 363 363 363 361 359 362 364 361 356 353 351 349 349 350 350 350 350 349 349 349 349 348 348 348 347 347 347 347 348 349 350 350 350 351 350 349 349 351 350 349 348 348 346 345 345 346 346 346 347 348 347 346 348 349 348 348 346 346 346 346 346 344 343 345 345 346 346 345 344 344 344 343 343 343 343 343 345 346 347 348 347 347 346 346 346 347
362 361 362 362 361 360 360 361 362 362 362 362 363 363 360 358 364 365 358 353 352 352 350 350 351 350 350 350 349 349 349 349 349 348 348 348 347 348 348 349 349 350 351 352 352 352 350 350 351 350 350 349 348 346 346 345 345 345 345 346 346 345 346 347 347 348 347 347 347 346 345 344 342 342 345 346 347 348 347 346 346 345 345 345 345 345 346 348 349 350 350 349 349 347 346 346 345
360 360 363 362 361 361 360 361 362 362 362 361 361 362 358 359 367 365 355 352 353 353 352 350 351 351 350 350 349 349 348 349 349 348 348 348 348 348 349 350 350 351 352 352 353 353 351 350 351 351 350 349 348 347 346 344 345 345 345 346 345 345 345 346 346 346 346 346 347 345 345 343 341 343 345 346 347 348 348 348 348 348 348 348 348 348 349 350 351 352 352 350 348 347 346 346 345
358 360 365 363 363 363 360 359 359 361 362 360 361 360 360 363 365 362 354 352 354 352 352 351 351 351 350 351 350 349 349 348 348 348 349 349 349 349 349 350 350 352 353 353 353 353 352 351 351 351 351 349 348 348 347 345 345 345 345 345 345 346 345 344 345 345 345 346 347 344 344 343 340 342 344 345 347 348 348 348 349 349 349 349 349 349 350 351 352 353 351 350 349 348 347 346 345
360 360 363 364 365 365 359 356 355 360 361 360 363 359 360 365 361 360 355 351 353 353 352 351 351 351 350 351 350 350 348 347 347 348 349 349 350 350 350 351 351 352 353 353 354 353 352 352 352 351 351 350 348 348 347 346 346 346 346 346 346 346 346 345 345 346 346 346 346 343 342 343 342 343 345 346 347 347 348 348 349 349 349 349 349 349 350 352 352 352 350 349 349 348 348 347 346
364 360 362 364 362 361 358 353 354 361 359 359 365 359 361 365 360 361 357 350 353 353 353 351 351 350 350 350 350 350 348 347 348 348 349 350 350 350 351 352 352 352 354 353 354 354 353 353 353 352 351 350 348 348 349 348 347 347 347 346 346 346 347 346 345 346 346 346 345 343 342 342 343 344 346 348 348 348 347 348 348 348 348 348 348 349 351 351 351 351 350 349 348 348 348 347 347
363 357 358 362 359 360 360 354 354 363 359 358 364 360 362 363 359 363 356 352 354 352 352 351 350 351 350 350 349 349 348 347 347 348 349 350 350 351 351 352 352 353 353 353 354 354 354 353 353 352 351 350 348 348 349 349 349 348 348 348 348 347 347 346 345 345 346 345 345 344 343 342 342 344 347 349 349 348 348 348 348 347 346 347 348 350 350 351 351 350 349 349 349 348 348 347 346
360 360 358 358 360 361 362 358 355 359 359 358 361 361 364 363 361 361 354 352 355 353 353 351 350 350 349 349 349 349 349 348 347 347 348 350 350 351 351 352 353 353 353 354 354 355 355 353 352 351 351 350 348 349 350 349 349 350 350 350 349 349 348 347 345 344 344 344 344 344 344 343 342 343 347 349 349 349 348 348 347 347 347 347 349 349 350 350 350 350 349 350 350 349 348 346 345
355 361 361 358 361 360 360 361 357 357 360 360 361 363 365 363 363 361 353 353 354 352 352 351 350 350 349 348 348 348 348 348 347 346 348 350 351 351 352 353 353 353 353 353 354 354 354 354 352 350 350 350 349 349 350 350 351 351 351 351 350 349 348 347 345 344 343 343 344 344 344 345 344 344 347 349 349 350 349 349 349 349 348 348 348 349 349 350 350 350 349 349 350 350 349 347 346
350 355 359 357 359 358 359 362 360 358 361 362 362 364 364 362 363 361 354 352 352 351 351 350 349 349 349 348 348 348 347 347 346 346 347 349 351 351 352 353 353 353 353 353 354 354 354 353 351 350 350 349 349 349 350 350 351 350 350 350 350 349 348 348 346 345 344 343 344 344 345 346 346 346 348 349 350 350 350 350 350 350 349 349 348 348 349 349 349 349 349 349 350 350 350 350 349
353 354 358 358 357 358 361 363 360 359 362 364 363 363 364 363 362 360 357 355 352 350 350 351 350 349 348 348 347 347 347 346 345 345 347 348 350 351 351 353 353 353 354 353 354 353 353 352 352 351 350 349 350 349 349 351 351 351 349 349 348 348 348 348 347 346 345 344 344 344 346 347 346 346 348 349 350 351 352 351 351 351 351 350 349 349 349 350 349 349 349 349 350 349 350 350 350
350 353 357 360 360 360 364 364 360 361 362 363 365 363 363 362 360 360 361 359 353 350 350 350 351 350 348 348 347 347 347 344 343 345 347 348 350 350 352 353 353 353 353 353 353 353 352 352 351 351 350 350 349 349 350 350 351 351 349 348 347 347 347 347 346 346 346 346 344 344 346 347 347 348 349 350 350 351 352 351 351 352 352 351 350 351 351 350 350 349 350 350 351 350 350 350 350
339 354 357 358 360 361 364 364 359 360 362 361 363 363 362 362 361 360 361 359 356 355 353 349 350 350 349 348 347 347 346 343 343 344 346 348 350 350 351 353 353 353 353 352 352 352 351 351 352 351 350 349 349 349 350 351 351 350 348 348 347 347 347 347 346 346 347 347 345 345 347 348 348 348 350 350 351 351 352 352 352 352 352 352 351 350 350 350 350 350 351 351 352 351 350 350 350
334 356 359 356 362 362 361 364 359 358 363 362 362 362 362 362 360 359 359 359 361 362 359 355 351 350 350 349 347 346 344 344 344 344 346 348 349 350 351 352 352 352 352 352 352 351 351 351 352 351 350 350 349 349 351 350 349 348 347 346 347 346 347 347 347 346 347 346 345 345 347 348 348 349 350 351 351 352 352 352 352 352 352 352 351 350 349 349 350 351 352 352 352 351 350 351 351
328 353 358 356 362 361 358 361 357 356 359 360 361 361 362 362 359 357 355 356 361 361 360 362 357 352 350 348 348 346 343 345 345 344 345 347 348 350 351 351 352 351 352 351 351 350 350 351 352 351 351 350 350 351 351 350 349 347 347 347 347 346 347 347 348 347 347 347 346 346 347 348 349 349 350 350 351 352 352 352 352 352 352 352 351 350 348 348 350 352 353 353 352 352 351 351 351
322 341 356 359 361 359 359 358 355 355 357 358 360 358 358 361 360 359 356 355 358 359 361 363 361 356 351 348 349 347 343 344 345 345 346 346 347 350 351 351 351 352 352 351 351 351 351 351 352 352 351 351 351 351 351 350 349 348 348 348 348 348 348 347 348 347 347 347 348 348 348 349 349 350 350 350 350 351 350 352 353 353 353 352 352 350 349 349 350 352 353 353 353 353 352 351 351
319 325 342 360 364 362 362 358 355 356 356 357 358 354 355 359 361 361 359 358 358 358 361 362 361 361 356 350 348 347 343 343 344 345 346 347 347 349 351 351 351 351 352 352 351 351 351 352 352 352 351 352 352 352 352 350 349 349 348 349 349 349 350 349 348 347 347 347 348 349 349 350 350 351 351 350 350 350 350 352 353 353 353 353 352 351 351 351 352 353 352 353 353 353 352 352 351
319 321 326 351 367 364 361 358 355 355 354 356 357 354 353 356 359 360 358 359 359 358 360 360 362 364 360 353 349 346 343 341 342 344 345 346 348 349 350 350 351 351 351 351 352 352 352 352 352 352 352 352 352 352 353 350 349 349 349 350 350 350 350 351 349 349 348 348 347 348 348 348 350 351 352 352 351 350 351 352 353 353 354 354 353 352 352 352 353 354 352 353 353 353 353 352 351
320 320 326 352 367 364 361 358 355 356 356 356 357 355 353 353 357 361 357 358 361 359 358 359 361 364 362 357 352 346 341 341 342 344 346 346 347 349 349 350 351 351 351 351 352 353 353 352 352 352 351 352 352 352 352 352 350 350 350 351 351 351 351 351 352 351 351 350 348 348 347 347 348 349 352 353 352 351 353 354 353 353 354 354 354 353 353 353 353 353 353 353 354 353 353 352 351
323 328 340 359 365 362 361 357 355 356 355 355 355 352 352 353 356 361 359 358 360 360 358 358 359 361 362 361 359 351 342 339 341 343 345 346 347 349 349 349 350 350 350 351 352 353 353 352 352 352 352 352 351 352 352 351 350 350 351 352 352 352 352 352 352 353 353 352 351 351 350 349 347 347 350 353 353 353 354 355 354 354 353 353 353 353 353 353 353 353 354 355 355 354 354 353 352
328 341 352 354 354 354 354 355 355 354 352 353 354 349 351 354 356 358 360 358 359 360 360 360 359 359 360 361 362 358 345 338 341 343 343 345 347 348 348 349 349 350 350 351 351 351 352 353 352 353 353 352 352 351 352 351 351 351 352 352 352 352 352 353 354 354 355 354 353 353 352 351 348 346 348 352 352 352 353 354 355 355 354 353 353 353 354 352 352 354 355 355 354 354 353 353 354
342 351 352 348 350 351 351 355 354 351 350 350 350 350 350 351 352 355 357 359 360 361 361 361 360 359 360 361 362 362 350 338 340 344 343 345 347 347 348 349 349 350 349 350 351 351 352 352 352 353 352 352 351 351 352 352 351 352 352 352 352 352 352 353 354 354 355 355 355 354 353 352 350 348 348 349 350 351 352 354 355 355 355 354 353 352 352 351 351 354 355 355 354 353 353 353 353
356 359 353 349 351 352 353 354 353 351 350 346 348 351 347 344 349 353 355 356 359 362 362 361 360 359 361 361 361 364 357 344 340 345 344 343 345 346 347 349 348 349 349 350 350 351 352 352 352 353 351 351 351 351 351 351 352 353 352 353 352 351 352 352 353 354 354 354 354 354 353 353 352 351 350 351 352 354 354 354 355 355 355 354 353 351 351 351 351 354 355 354 354 354 354 353 353
358 357 351 349 350 351 352 351 349 350 347 343 348 350 347 347 350 353 356 354 354 358 359 360 360 359 360 360 360 365 365 353 343 345 347 343 344 345 346 348 348 348 348 349 350 351 351 352 352 352 352 352 351 351 352 352 352 353 352 352 352 352 352 352 352 352 352 352 353 352 352 353 352 351 352 353 354 356 355 355 355 355 355 354 352 351 352 351 351 354 355 354 354 354 355 354 353
355 350 346 350 350 348 350 349 345 345 342 344 350 348 348 352 353 355 357 356 358 357 357 359 359 358 360 359 360 364 365 359 348 344 346 345 343 344 346 347 347 348 348 349 350 350 351 352 352 352 352 352 351 351 351 351 351 352 352 352 351 352 352 352 352 352 351 351 351 351 352 353 353 351 350 352 355 356 356 356 355 354 353 353 352 352 353 354 353 354 355 354 354 355 355 354 352
353 351 348 347 345 345 347 347 344 345 345 346 348 347 350 354 354 355 356 356 359 361 357 357 358 359 361 359 362 363 362 362 353 345 343 344 342 344 345 346 347 347 348 348 349 350 350 351 351 351 351 351 351 351 351 350 350 350 351 351 351 351 352 352 351 350 350 350 350 351 352 353 353 351 351 353 354 356 356 355 355 354 352 352 353 352 353 355 355 354 353 353 354 355 355 354 352
346 345 347 343 342 343 342 342 341 345 349 349 348 349 353 354 353 354 356 355 358 360 357 355 357 360 362 360 362 363 361 361 357 350 344 343 342 344 344 345 346 346 346 347 348 349 350 351 351 351 351 350 350 350 350 349 348 349 351 351 351 351 351 351 351 350 351 352 352 352 353 353 353 353 353 354 355 356 356 355 355 354 353 352 352 352 353 355 355 355 354 355 354 355 354 353 353
339 338 343 340 340 346 344 343 344 344 349 351 350 352 353 353 354 355 357 357 357 359 357 354 355 359 361 360 361 362 362 360 359 357 350 343 342 343 344 344 345 345 346 347 348 349 349 350 350 351 351 351 350 350 349 347 346 348 350 350 350 350 351 350 350 351 352 353 354 354 353 353 353 354 354 355 355 355 356 355 355 354 353 352 352 352 353 354 355 355 355 355 355 355 355 354 354
338 339 341 331 329 340 346 348 350 348 351 351 348 351 352 352 355 357 359 358 357 358 358 357 356 357 359 360 359 361 362 358 359 361 356 347 342 343 344 344 345 345 346 346 347 348 349 349 349 350 350 350 349 349 348 347 347 348 349 350 350 350 350 350 351 352 353 354 354 354 353 353 353 353 354 355 355 354 355 355 354 354 353 352 353 354 355 355 355 355 355 355 355 355 354 354 355
336 338 337 328 325 329 334 343 348 347 350 353 349 348 351 353 355 358 360 360 357 356 357 359 359 357 357 358 359 359 360 358 359 361 360 354 347 344 343 344 345 345 345 346 347 348 348 349 349 349 349 348 348 348 348 348 347 347 349 349 350 350 350 351 352 352 353 353 352 353 354 353 353 352 353 354 355 355 354 355 354 355 353 352 353 355 355 355 355 355 355 355 355 355 355 354 355
327 328 327 327 329 330 332 339 345 345 348 353 349 348 351 353 354 358 360 357 355 355 355 356 357 356 356 357 358 358 357 358 358 359 359 356 351 347 345 344 344 345 345 345 347 348 349 348 349 349 349 348 348 348 348 349 348 348 349 348 349 350 350 350 351 352 353 352 352 352 353 353 353 353 354 355 355 355 354 354 355 355 355 353 354 354 355 355 355 354 354 354 354 356 356 356 356
322 321 320 321 324 328 331 333 337 345 350 350 350 352 352 350 350 356 358 353 352 352 353 354 354 355 356 355 356 357 357 357 358 358 358 355 352 351 348 345 344 344 345 346 346 347 348 348 349 349 349 349 348 348 348 348 349 348 348 348 348 349 349 350 350 351 352 352 351 351 352 352 353 353 355 356 356 356 355 354 355 355 355 353 354 354 355 355 356 356 355 355 356 357 358 357 358
325 324 321 321 322 325 329 328 333 345 349 346 349 353 352 349 350 353 353 351 350 349 350 352 352 353 354 355 355 355 356 357 357 357 356 353 354 354 351 348 345 344 346 346 346 347 348 348 349 349 349 349 349 348 348 348 349 350 349 349 348 349 350 349 349 349 350 351 351 351 351 351 352 353 354 355 356 356 356 356 356 357 356 355 355 355 355 355 355 356 357 357 357 357 358 358 358
Wind_Speed
9 11 10 11 9 5 2 1 0 1 1 1 0 1 1 1 2 3 3 4 4 3 3 6 9 6 3 4 5 3 2 4 3 3 3 1 13 22 19 21 21 19 18 16 15 16 15 15 14 15 17 16 12 12 12 10 10 10 10 10 9 9 9 9 7 6 7 8 9 10 12 13 14 13 13 13 13 14 14 14 14 15 15 15 15 15 15 15 15 14 15 16 17 18 17 18 17
13 13 11 9 5 3 0 1 1 2 2 2 1 0 1 0 3 3 6 5 3 4 3 7 8 4 3 4 7 4 4 3 3 2 2 10 17 16 20 23 21 20 18 16 16 16 16 15 15 15 16 16 12 11 10 9 9 9 9 9 9 8 7 7 6 6 6 7 7 8 11 13 13 13 14 13 13 14 14 14 13 14 15 16 16 15 15 15 14 15 15 16 17 17 16 16 16
16 15 11 7 2 1 1 0 1 1 2 1 0 1 1 2 3 4 5 3 2 7 6 8 7 3 3 4 3 3 2 3 4 3 5 14 13 14 23 22 20 20 17 17 16 15 15 15 15 15 15 15 12 11 10 9 9 8 8 8 8 8 7 6 5 7 7 7 8 8 10 12 13 13 15 13 13 13 13 13 13 14 14 15 16 15 15 15 14 14 15 15 15 15 15 15 15
16 13 7 3 0 1 1 1 1 2 1 1 1 0 1 2 3 2 2 1 5 10 7 8 5 1 2 3 1 2 3 3 4 4 8 12 11 19 25 22 21 18 16 16 15 15 15 13 14 15 15 14 12 10 10 9 8 8 8 7 8 7 7 6 5 6 7 8 9 9 9 11 12 13 14 13 12 12 13 13 13 14 15 15 15 15 15 15 14 14 14 14 14 14 14 14 15
14 9 3 2 1 0 1 1 0 1 1 2 2 1 2 2 3 1 1 3 5 8 8 7 3 1 3 3 1 2 3 4 4 5 11 11 15 26 26 24 22 18 17 14 15 15 14 14 13 15 15 13 11 10 9 8 8 8 8 7 7 7 7 6 5 5 6 7 8 9 10 10 11 11 12 12 12 12 13 13 13 15 16 15 15 15 16 15 14 13 13 13 13 13 13 13 15
10 6 2 3 1 0 1 1 0 1 1 1 2 2 2 3 2 2 5 5 4 6 6 4 4 4 3 2 2 2 3 6 6 8 13 16 22 27 26 25 22 19 18 14 14 13 13 13 12 14 14 12 10 9 8 8 8 8 8 7 7 7 7 7 6 4 4 5 6 9 10 10 11 10 9 10 11 12 13 13 13 14 15 16 15 16 17 16 14 13 13 13 13 13 13 14 15
7 3 2 2 1 0 1 0 1 1 1 1 2 3 3 3 2 3 5 4 4 4 4 3 6 6 3 1 3 4 3 8 10 10 16 24 27 26 26 25 22 20 18 16 13 12 12 12 12 12 12 10 9 8 7 7 7 7 7 7 7 8 8 7 7 5 3 1 4 9 10 10 10 9 9 10 11 12 12 13 14 14 15 16 15 16 17 16 14 14 14 13 13 14 14 14 15
4 1 1 1 1 1 1 1 2 0 1 2 1 3 3 3 2 3 5 3 3 3 4 4 5 5 2 2 3 5 7 11 12 15 22 29 29 26 26 24 23 21 18 17 15 13 13 12 13 12 11 9 8 7 6 7 7 7 7 7 7 7 8 8 7 7 5 2 4 8 8 9 10 10 10 10 11 12 12 13 15 15 15 15 15 16 17 16 14 14 14 14 14 14 15 15 14
1 0 0 1 1 1 1 2 1 1 1 1 1 2 4 3 2 3 5 4 3 4 5 4 3 4 3 6 5 4 9 14 16 20 25 29 29 26 25 24 23 22 19 18 16 15 14 13 13 12 10 9 8 7 6 7 6 7 6 6 7 8 8 8 8 9 6 3 4 7 7 9 10 10 10 10 12 13 13 14 14 14 15 15 15 16 16 15 14 14 13 14 14 15 15 14 13
1 1 1 1 1 1 1 2 1 1 1 1 1 2 3 3 2 3 5 5 5 5 5 5 6 6 5 6 4 3 10 19 23 22 24 27 28 26 24 22 21 21 20 19 17 16 14 13 12 11 10 8 7 6 6 6 6 6 6 6 7 8 9 8 9 12 8 3 5 7 7 10 11 10 9 10 12 12 13 13 13 13 14 14 15 16 15 14 14 13 13 14 14 14 14 14 13
1 1 1 1 1 0 1 1 1 1 1 2 2 2 0 2 4 4 6 6 5 6 5 5 6 6 7 4 3 6 15 22 24 22 23 26 26 25 23 21 20 20 21 19 17 16 14 13 11 10 8 7 7 6 6 6 5 5 5 6 8 9 9 9 10 14 9 3 6 8 7 9 11 10 9 10 12 11 12 12 12 13 13 14 15 15 15 14 13 14 13 14 13 13 13 13 13
1 0 1 1 1 1 2 1 1 1 2 2 1 1 1 1 4 5 8 7 5 7 3 3 5 5 6 3 3 10 17 19 21 22 23 24 24 23 22 21 19 19 20 20 18 16 14 12 11 9 7 6 6 6 6 6 5 5 6 6 8 8 8 8 11 14 10 5 7 9 8 8 10 10 10 10 11 11 11 12 13 12 13 14 15 14 14 14 14 14 14 13 12 12 13 13 13
1 1 2 0 1 1 1 1 2 3 2 2 2 1 1 1 4 7 8 7 6 7 2 3 7 4 5 4 4 8 12 16 20 21 21 22 23 22 21 20 19 19 20 19 18 16 14 12 10 8 7 7 7 7 6 5 5 6 7 7 7 8 8 8 10 14 12 8 7 8 9 9 10 10 10 10 10 11 10 11 13 13 13 15 15 14 14 14 14 14 13 12 12 12 13 13 12
1 1 1 1 1 1 2 2 3 5 3 2 3 2 1 2 2 6 9 8 4 3 3 5 7 5 5 5 5 5 9 18 21 20 20 21 22 21 21 19 19 20 19 19 18 16 14 11 9 8 7 7 7 7 6 5 6 6 7 7 7 7 8 8 10 13 14 12 9 8 8 8 10 8 8 10 10 10 10 10 12 13 14 15 14 14 14 14 14 13 13 12 12 12 12 12 11
3 0 0 1 2 2 3 3 5 6 3 3 4 2 3 2 2 6 8 7 2 2 6 6 3 3 4 5 5 6 14 22 21 20 21 20 20 20 20 20 19 19 19 18 17 15 13 11 9 7 7 7 7 7 7 6 6 6 7 7 6 7 8 9 10 11 14 14 11 9 8 8 10 7 7 10 11 10 11 11 12 12 13 14 14 14 14 13 14 13 12 12 12 12 11 11 10
2 0 0 1 2 3 3 2 5 6 4 4 4 3 5 3 2 5 2 4 5 5 4 3 1 2 4 3 7 15 21 23 21 22 21 20 20 19 20 20 19 18 18 17 16 15 13 11 9 7 7 6 7 7 8 8 7 7 7 7 6 8 9 9 9 9 12 13 13 12 10 8 8 8 8 11 11 11 11 11 12 13 13 14 14 14 13 12 13 13 13 12 12 12 11 10 9
1 0 1 1 2 4 3 1 4 4 4 6 4 2 6 4 2 2 2 5 8 5 3 2 2 4 6 8 16 24 24 23 23 23 21 20 19 19 19 19 19 18 18 17 16 15 12 11 9 7 6 6 7 7 7 8 8 8 8 7 7 9 9 9 8 8 10 12 14 13 12 10 8 8 10 11 12 11 11 11 12 13 13 14 14 13 11 12 13 13 12 11 10 10 10 9 8
1 0 1 2 3 3 3 2 2 2 5 8 5 2 6 6 2 3 5 6 5 6 6 6 7 9 12 18 25 25 23 23 24 23 19 17 17 17 18 19 19 18 18 16 14 14 12 10 8 7 6 5 7 7 7 7 8 8 8 8 8 8 8 9 8 7 8 11 12 12 12 11 10 9 10 11 11 11 11 11 12 13 13 14 13 11 10 11 12 11 11 10 9 9 8 8 7
2 0 1 3 2 1 1 2 3 3 5 8 6 2 4 5 4 3 4 5 5 7 6 7 10 11 15 20 23 23 23 22 21 20 17 15 16 16 17 18 18 18 18 16 14 13 12 10 8 7 5 5 6 6 7 7 8 8 8 8 7 7 8 8 8 7 8 10 10 11 12 11 11 11 10 11 10 11 11 12 12 13 13 13 12 11 10 10 11 10 10 8 8 8 7 7 6
2 1 1 3 2 1 1 2 3 4 6 9 6 2 4 3 2 2 6 7 5 6 6 7 10 12 13 15 19 21 21 19 19 18 16 14 15 15 16 17 18 18 17 16 15 13 12 10 8 7 5 5 6 6 7 7 7 8 8 8 7 6 6 7 7 7 8 9 9 10 11 11 12 12 11 11 11 11 12 12 12 13 13 12 11 11 10 9 9 9 9 8 7 7 6 5 5
2 3 3 3 1 1 2 4 5 6 6 8 6 5 5 2 2 3 9 9 3 5 7 8 12 15 14 13 16 19 18 18 17 16 15 14 14 14 14 15 17 18 17 16 15 13 12 11 9 8 6 5 5 6 7 7 7 7 8 7 7 6 6 7 7 7 8 10 10 10 10 10 10 11 11 11 12 11 12 12 12 12 13 12 11 11 10 9 8 8 8 7 7 6 5 4 4
2 3 3 3 3 1 2 4 6 7 5 6 6 6 5 2 3 4 9 7 3 5 7 10 13 15 16 14 15 16 16 15 15 15 14 14 14 14 14 14 17 18 17 17 15 13 12 11 9 8 6 5 5 6 6 7 7 6 7 7 7 6 6 7 7 7 9 10 10 9 9 9 9 11 11 12 12 12 12 12 12 13 12 12 11 10 10 8 7 7 7 6 6 5 4 4 3
2 2 2 3 3 4 4 5 7 6 5 5 4 4 4 5 5 3 4 3 3 4 7 10 11 14 18 16 14 13 12 13 14 15 14 14 15 15 16 16 18 19 18 17 15 13 12 11 10 8 7 6 6 6 6 6 6 6 6 7 7 6 7 7 7 7 9 10 9 9 8 8 9 10 11 11 11 11 12 12 12 12 12 11 10 9 9 8 7 6 5 4 4 3 3 2 2
4 2 1 1 3 4 6 7 8 7 6 3 3 3 4 6 5 3 3 3 6 7 8 11 12 15 18 13 11 12 12 13 14 15 15 15 15 16 17 17 18 19 18 17 15 14 13 12 11 8 8 7 7 7 6 6 6 6 6 7 8 7 7 7 7 8 9 9 9 8 8 8 8 9 10 10 10 10 11 11 11 11 11 10 9 8 8 7 6 4 3 3 3 2 1 1 1
5 3 1 4 4 4 5 7 9 8 6 4 6 7 5 4 2 2 2 5 9 10 10 11 12 13 13 11 11 11 11 13 14 15 16 15 15 15 15 16 17 18 17 17 16 15 14 13 12 10 9 8 8 7 6 7 7 7 7 8 7 7 8 7 7 8 7 8 8 8 7 8 8 9 11 12 11 11 11 11 11 10 10 9 8 8 7 6 5 3 2 2 2 1 1 1 1
5 4 4 5 5 4 4 6 8 6 4 6 9 8 2 2 2 3 2 7 11 11 12 11 12 11 10 9 10 10 10 12 14 15 16 15 16 15 15 16 17 17 17 17 16 15 15 14 13 11 10 9 8 7 7 7 7 8 8 8 7 7 9 7 6 7 7 7 8 8 8 9 10 11 13 14 13 13 12 12 11 11 10 9 8 7 7 5 3 2 2 2 2 2 3 3 3
6 8 7 8 6 4 4 5 6 5 3 5 8 7 3 1 2 4 2 8 13 12 13 11 11 10 9 8 9 11 11 12 16 16 15 15 16 16 15 16 17 17 16 17 17 16 16 15 14 12 10 9 9 8 8 7 7 8 8 9 8 8 9 7 6 7 7 7 7 8 9 10 11 13 14 13 12 11 11 11 11 10 9 8 7 6 5 4 3 3 4 4 3 3 3 4 5
11 12 10 9 7 6 6 6 5 4 3 3 9 8 3 1 2 2 4 9 13 14 13 11 10 9 9 9 8 9 10 13 16 16 15 16 17 17 17 17 18 17 17 18 18 17 17 17 15 13 12 10 10 9 9 9 8 8 9 9 9 8 9 7 7 7 8 8 8 8 10 12 13 14 13 11 10 10 10 10 10 9 8 7 6 5 4 4 4 5 5 5 4 3 3 3 4
9 8 9 8 7 5 4 6 2 1 2 4 9 8 1 1 2 0 6 10 13 14 13 11 10 8 8 8 7 6 9 13 15 15 16 17 18 18 18 18 19 18 18 18 18 18 18 17 16 14 12 11 11 10 10 10 9 8 9 9 8 8 8 8 7 8 8 9 9 9 11 12 13 13 11 10 9 9 10 9 8 8 6 6 6 4 4 4 4 5 5 5 4 4 4 3 2
5 5 6 6 5 1 1 3 1 1 4 4 4 4 4 2 1 0 6 11 13 13 12 11 9 7 7 7 6 6 8 12 12 14 17 18 18 19 18 18 19 19 19 18 18 19 18 18 17 15 14 12 11 11 11 10 9 8 8 8 7 7 8 7 8 8 8 9 10 10 12 12 12 12 10 9 9 9 8 8 7 6 6 6 5 4 3 3 4 5 5 4 4 3 4 4 4
4 4 3 3 2 2 1 2 2 1 3 3 1 3 4 4 3 1 5 11 14 14 12 11 9 7 7 6 7 6 7 11 13 15 18 19 19 19 19 19 20 20 20 20 19 19 19 18 17 16 15 13 12 12 11 11 10 9 8 7 7 7 7 8 8 8 8 9 10 11 12 12 11 11 9 8 8 8 7 6 6 6 6 6 5 4 3 2 4 5 5 5 5 4 4 5 5
3 4 2 1 1 3 3 4 5 3 2 3 2 2 3 4 6 3 5 10 13 14 12 11 10 8 7 6 7 6 6 11 14 15 17 19 19 19 20 20 20 21 21 21 20 20 19 18 17 17 16 14 13 13 11 11 10 9 7 7 6 6 7 8 8 8 9 10 10 11 12 11 11 10 9 8 7 7 6 5 5 5 6 5 4 3 2 2 4 5 5 6 6 6 6 6 5
2 2 3 2 3 4 3 4 5 3 4 1 3 2 3 4 5 4 8 11 10 13 12 11 11 9 8 7 6 6 5 8 11 13 16 18 18 19 20 21 22 22 21 21 21 20 20 19 18 18 17 15 14 13 12 12 11 10 8 7 7 7 7 7 8 8 9 10 10 11 11 11 11 10 8 7 6 5 5 5 4 5 5 4 4 3 1 1 3 4 5 6 7 7 7 6 5
1 2 3 2 4 4 3 5 5 4 6 3 2 3 3 4 6 5 10 11 9 12 12 12 11 9 8 7 6 7 6 6 8 13 16 18 19 19 20 21 22 21 21 21 21 21 21 20 20 19 18 17 15 14 13 13 11 10 9 8 8 8 8 8 8 9 9 10 10 11 11 11 10 9 8 6 5 4 4 4 4 4 4 3 3 2 1 1 3 3 4 5 6 7 7 6 6
3 2 3 2 3 3 4 5 6 8 7 3 3 4 3 5 6 6 10 11 10 11 11 11 10 10 9 8 7 7 7 7 10 15 18 19 19 19 19 20 21 21 20 20 20 21 21 21 20 19 19 18 16 15 14 13 12 11 10 10 10 10 10 10 10 10 10 10 10 10 11 10 10 9 7 6 4 4 4 4 4 4 4 3 3 2 2 1 2 3 4 5 6 6 7 7 7
5 4 3 4 3 1 3 4 6 9 7 4 5 4 4 6 7 8 8 9 9 10 10 9 9 10 9 8 7 7 8 8 12 17 18 19 20 19 19 20 20 20 20 20 21 21 21 21 20 19 19 18 17 16 15 14 13 12 12 11 11 11 11 11 12 12 12 11 11 11 10 10 9 8 7 5 4 4 4 4 5 4 3 3 3 3 2 1 2 3 4 5 6 6 6 6 7
6 5 4 5 4 1 2 4 7 7 4 6 5 4 6 6 8 9 5 5 9 10 10 9 8 9 9 9 9 8 9 9 13 17 18 20 19 18 19 19 20 19 19 20 21 22 22 22 21 20 20 19 19 18 17 17 16 15 14 14 13 13 13 12 12 13 13 12 12 12 11 10 9 8 7 5 4 4 3 3 4 3 3 2 2 2 1 1 2 3 4 6 6 6 6 6 6
4 5 5 5 4 3 2 5 10 5 1 5 5 5 7 7 8 7 4 4 8 7 8 10 10 10 9 10 10 9 8 7 9 13 16 19 18 18 19 19 21 21 21 22 22 22 22 22 21 20 21 20 20 19 18 18 17 16 15 15 14 14 13 12 12 13 13 12 13 13 12 10 9 8 7 6 5 4 3 3 2 2 2 1 1 1 0 0 1 2 3 5 6 6 6 6 6
4 3 5 4 3 4 3 4 7 2 2 4 7 6 6 7 7 5 4 3 4 2 2 6 9 11 9 10 10 9 7 6 7 10 14 18 18 19 19 20 22 22 22 22 22 23 23 23 21 20 21 21 21 19 18 17 15 14 13 12 13 13 12 11 10 12 13 12 13 14 13 11 10 9 8 7 6 5 4 3 3 3 2 2 2 1 1 1 1 2 3 4 5 6 5 5 5
3 3 3 3 5 4 2 3 5 5 2 3 7 6 4 6 6 4 2 1 1 2 2 3 5 9 10 11 9 9 9 8 8 9 11 16 18 19 20 20 21 21 21 22 23 24 24 23 22 21 22 22 21 19 17 15 14 14 13 11 11 11 11 10 10 11 13 14 14 14 14 12 11 10 9 8 7 6 6 5 4 4 3 2 2 2 2 2 3 2 2 4 5 6 6 5 4
2 4 4 3 7 4 3 7 7 5 2 3 6 5 3 6 6 5 4 2 1 1 2 3 3 5 7 8 7 8 9 9 10 9 10 14 17 19 21 21 21 21 23 24 26 26 25 24 22 21 21 21 21 18 16 16 15 16 15 12 11 11 10 11 12 13 14 15 15 15 14 13 12 11 10 9 8 8 7 6 5 5 4 3 3 3 3 3 3 3 2 2 4 5 5 5 4
3 3 6 7 9 5 9 13 8 3 1 3 6 4 2 6 9 8 5 5 4 2 0 2 4 4 5 6 7 6 7 8 10 11 12 15 18 19 20 21 21 22 24 26 27 27 26 25 23 22 21 21 20 18 17 17 17 18 17 15 14 13 11 13 15 15 16 16 15 15 14 14 13 12 10 9 9 9 8 7 6 5 5 4 4 4 4 4 4 4 2 1 3 4 4 5 5
2 5 7 9 9 9 13 14 8 2 2 4 5 2 1 3 8 9 7 7 7 4 4 5 4 4 5 7 7 6 7 7 8 10 13 15 18 18 19 21 24 25 25 26 25 26 26 25 24 24 23 21 20 19 19 19 19 19 18 17 16 15 15 15 16 15 15 15 14 14 14 14 14 12 11 10 9 10 9 8 7 7 6 5 5 4 5 5 5 4 2 1 2 3 4 5 4
3 4 7 11 10 11 13 12 6 2 3 3 3 1 2 1 4 8 8 7 7 7 8 7 5 4 5 7 7 7 9 8 9 9 11 15 19 20 22 24 27 26 25 25 25 26 26 26 25 25 23 22 20 20 20 20 20 19 18 17 17 16 15 15 15 14 13 12 12 12 12 13 14 13 12 10 10 10 9 8 8 8 7 6 6 5 5 6 5 5 3 1 1 2 4 5 3
4 2 7 10 9 9 9 7 4 3 4 3 5 3 2 1 1 6 9 9 9 10 10 10 8 6 5 5 6 8 9 9 10 10 12 16 20 23 26 27 27 25 24 26 27 26 26 25 25 25 24 23 21 19 20 20 20 19 18 18 18 16 15 14 13 13 12 11 11 11 11 11 13 14 13 12 11 10 9 9 8 8 8 7 6 5 5 6 6 5 3 2 1 1 3 4 4
2 6 10 8 8 7 4 3 3 4 2 3 8 6 2 1 2 5 8 10 11 11 9 9 8 6 5 5 4 6 8 8 9 11 15 19 23 26 27 26 26 25 25 26 26 25 25 25 26 26 25 23 21 20 20 20 20 19 17 17 17 17 16 15 13 12 12 11 11 11 10 11 11 13 14 14 12 11 10 10 9 8 8 7 7 7 6 7 6 5 4 3 2 1 2 3 3
4 10 12 10 8 7 5 3 3 4 2 3 10 9 2 1 3 4 6 5 8 9 8 7 7 5 5 4 3 4 6 8 8 9 14 19 23 25 24 24 25 24 24 24 24 25 26 26 27 27 25 23 22 21 21 20 20 19 17 16 16 17 18 17 15 14 14 13 12 12 11 11 11 12 13 13 12 11 10 10 10 8 7 7 8 8 7 7 7 6 4 4 4 2 1 2 3
6 6 6 7 4 4 4 3 3 3 3 3 8 8 3 0 3 3 4 2 2 7 9 11 10 7 5 4 3 3 4 7 8 8 10 13 15 17 19 21 22 22 23 24 25 26 26 27 28 28 26 25 24 23 22 21 20 19 17 16 16 17 17 17 16 16 15 14 13 12 12 12 12 12 12 12 12 10 10 10 10 9 8 7 7 8 8 7 8 7 5 5 4 3 2 3 4
5 5 5 6 2 2 3 1 1 2 3 3 6 8 2 2 3 2 4 5 3 6 9 11 12 10 7 5 4 3 3 6 8 8 8 9 12 15 18 19 20 22 25 26 26 27 27 28 29 29 29 27 26 25 24 23 22 20 18 16 15 15 16 16 15 15 15 15 14 13 13 13 13 13 13 13 12 11 10 10 9 9 7 7 7 7 7 8 8 7 6 6 5 3 3 4 5
6 7 5 5 3 2 2 1 1 2 4 3 4 6 1 3 1 1 4 4 3 5 8 10 12 10 7 5 5 3 2 4 7 8 8 9 13 17 20 21 22 24 26 27 27 27 27 27 29 29 29 28 27 26 25 25 24 22 20 18 15 14 15 15 14 13 14 14 14 14 13 13 13 13 13 13 12 11 10 9 9 8 7 7 7 8 8 8 9 8 7 7 6 5 5 6 6
6 5 5 5 5 4 3 4 3 2 1 2 3 3 2 1 0 3 2 1 2 2 4 9 10 7 6 5 4 3 1 1 4 8 8 11 16 19 20 22 23 25 25 26 26 26 26 27 28 29 28 28 27 26 25 25 24 23 21 18 14 13 14 14 12 11 11 13 13 13 13 13 13 13 13 12 11 11 10 9 9 8 8 8 8 9 9 9 9 9 8 8 7 6 7 7 8
4 2 5 4 5 5 4 2 3 3 3 2 1 1 2 1 1 3 2 4 3 2 4 9 10 7 7 5 4 4 2 1 3 6 8 11 17 19 20 22 23 23 24 25 26 27 27 27 28 28 28 27 26 25 24 23 23 23 21 18 14 13 14 13 12 11 11 11 12 12 12 12 12 12 12 11 11 11 10 9 9 9 9 8 9 10 10 10 10 9 9 9 8 7 8 8 8
2 2 3 2 2 7 5 1 1 3 3 1 0 1 1 1 2 2 4 6 5 3 4 8 10 8 8 7 5 4 3 1 2 4 6 10 16 19 21 23 23 22 22 24 26 28 30 29 28 27 26 26 26 25 23 22 23 23 21 18 15 14 14 14 13 12 11 11 11 11 11 11 11 11 11 11 10 10 10 9 9 9 9 9 10 10 11 11 10 10 10 10 9 8 8 8 8
5 4 5 2 3 4 4 3 2 3 2 0 1 2 2 1 1 2 5 7 5 4 3 7 8 8 8 6 6 5 4 3 2 3 4 8 14 18 21 22 24 25 25 26 27 28 28 29 28 27 26 26 26 25 23 22 23 23 22 19 16 16 15 13 13 13 12 11 10 11 10 10 10 10 10 10 10 10 10 10 10 10 10 10 11 11 10 10 11 11 11 11 10 10 10 9 9
4 5 6 5 3 1 1 3 2 2 2 2 1 3 2 3 2 2 5 7 5 4 3 5 7 8 7 6 6 6 5 4 3 3 3 5 11 16 20 22 23 24 25 25 25 24 25 26 27 27 27 26 25 24 23 23 23 23 23 21 18 17 16 15 14 14 13 12 11 11 10 9 8 9 10 10 10 10 10 10 11 10 10 11 12 11 10 10 11 12 12 11 11 11 11 11 10
4 5 5 3 2 4 3 2 3 4 3 2 1 2 3 3 2 2 6 7 6 5 3 3 5 6 6 5 6 6 5 5 4 3 2 4 8 13 18 21 23 24 25 24 23 23 24 25 25 25 24 24 23 23 23 23 23 23 23 22 20 19 18 17 16 16 15 13 12 11 11 10 9 9 10 10 11 11 10 10 10 10 11 12 13 12 12 11 12 12 13 13 13 12 12 12 12
4 5 4 1 2 3 3 2 1 3 4 3 2 1 4 2 2 2 6 7 6 6 4 2 2 4 5 5 5 5 5 5 5 4 2 3 5 8 13 18 21 22 23 23 24 25 24 24 23 23 23 23 23 23 23 23 23 23 23 23 22 21 20 19 19 18 18 15 13 12 12 12 11 10 10 11 11 11 11 11 11 11 11 12 13 13 13 13 13 13 14 14 14 14 14 14 14
6 6 6 4 3 4 4 1 2 2 4 4 4 2 3 1 2 1 5 6 6 7 5 5 4 3 3 4 5 5 5 5 5 5 4 5 5 5 9 15 19 21 22 24 25 25 24 24 23 22 23 24 24 24 24 23 23 23 23 23 23 22 21 20 20 20 20 18 15 13 12 13 13 12 11 12 12 12 12 12 12 12 12 13 13 13 13 14 14 15 15 15 15 16 17 17 17
Wind_Direction
142 140 144 136 127 113 88 206 116 320 96 66 335 81 286 216 124 113 115 142 136 171 182 129 136 138 136 151 157 141 105 147 143 142 194 202 147 151 151 153 151 143 138 130 129 128 129 127 120 117 111 107 106 103 103 105 108 109 109 110 111 111 112 113 117 119 116 109 111 116 112 112 118 114 108 112 115 113 110 109 109 107 107 109 109 108 109 108 105 106 109 111 113 111 108 105 102
145 141 137 127 121 112 65 233 102 354 49 66 324 99 211 145 100 129 152 170 166 151 147 133 137 114 70 122 132 99 56 51 83 120 104 133 141 145 150 154 150 144 138 133 134 131 133 132 125 120 113 111 109 107 107 107 108 107 107 106 107 108 109 111 115 114 113 112 109 111 111 108 112 113 112 113 114 111 110 110 110 109 109 109 109 110 110 109 107 105 107 109 110 110 107 103 101
141 138 132 126 115 116 172 3 110 65 60 110 308 316 153 112 113 146 172 221 171 131 129 134 131 93 71 102 113 86 90 68 102 103 112 141 143 143 150 153 148 144 140 137 135 134 134 132 127 121 116 115 114 115 113 113 112 110 110 107 109 107 106 104 102 104 105 107 106 106 106 109 109 111 115 112 111 110 110 114 112 110 110 110 111 112 112 112 110 105 104 106 106 104 103 102 101
136 133 118 115 90 52 74 52 108 112 105 170 135 203 157 116 126 158 207 231 136 131 133 138 127 58 90 106 109 81 97 94 120 121 133 158 156 146 150 150 147 143 139 137 134 133 133 131 127 124 122 118 116 119 117 118 118 116 116 113 113 111 109 104 89 93 98 102 104 102 100 107 107 111 116 109 108 108 108 112 113 113 111 110 110 111 112 111 110 106 106 106 105 101 100 100 102
134 131 84 9 62 28 64 81 3 106 176 184 126 160 173 138 145 173 105 103 126 136 142 142 114 57 91 85 85 110 112 99 130 144 135 158 155 147 150 150 147 142 139 137 134 133 133 132 129 129 122 114 118 120 121 124 125 125 122 119 117 115 112 106 89 77 87 101 104 102 103 105 101 109 113 103 103 105 107 111 113 115 113 110 109 113 113 109 107 106 110 111 108 105 102 101 103
130 124 33 8 78 219 64 95 243 206 216 144 131 162 160 156 158 146 113 95 89 116 128 132 114 107 88 60 56 98 157 129 143 158 140 148 151 148 151 150 147 143 141 139 135 130 132 132 129 126 115 114 124 125 130 130 127 127 124 123 121 118 116 110 103 82 66 92 108 105 105 105 101 106 105 98 100 102 105 110 112 114 115 113 112 116 113 109 107 106 111 113 110 109 107 106 109
131 118 16 35 58 3 79 285 247 221 354 65 139 151 156 153 136 140 129 98 77 78 73 106 119 106 80 94 81 59 124 134 140 159 148 146 148 149 151 151 147 142 141 140 135 128 131 131 125 119 117 125 130 131 132 123 117 117 119 121 121 122 120 112 109 104 85 104 119 105 103 106 104 103 101 100 100 102 103 107 110 110 113 114 116 117 112 110 109 107 110 111 110 110 109 110 111
140 141 21 82 35 17 70 288 279 235 36 30 72 128 145 137 126 144 138 111 111 104 94 120 108 96 57 56 92 53 87 123 138 150 146 143 146 149 152 152 147 142 141 141 137 135 138 136 130 126 129 132 131 133 123 112 112 112 115 116 118 123 121 117 120 120 129 175 112 97 100 101 99 97 97 99 99 101 101 104 109 111 112 113 115 115 113 112 109 108 111 112 110 111 111 110 110
151 294 47 75 56 7 306 276 284 339 26 38 41 103 121 127 118 124 120 94 112 116 111 127 81 99 96 63 89 64 90 122 135 140 141 143 147 150 152 153 148 143 142 141 139 139 141 139 135 134 134 131 132 129 116 113 112 109 111 113 121 128 125 124 125 117 123 150 96 94 96 90 91 90 89 95 100 101 100 103 109 113 114 112 113 113 113 114 113 113 115 114 113 115 115 112 109
73 3 22 57 100 61 315 270 260 349 19 81 81 97 118 137 95 93 110 103 113 110 101 90 72 106 116 79 79 82 115 129 132 135 141 144 148 151 153 155 149 143 142 142 141 140 139 137 135 136 135 130 129 121 116 114 108 110 110 115 128 132 129 129 120 108 108 114 86 85 87 87 88 86 84 92 98 101 104 107 110 114 114 115 116 117 117 118 117 117 116 116 116 119 119 114 109
45 355 27 81 90 122 260 264 280 270 121 97 78 49 16 135 91 82 102 103 96 100 116 93 93 115 102 81 68 110 127 130 132 137 142 144 147 152 154 155 149 144 143 142 139 138 137 136 137 136 132 128 123 117 112 107 103 106 111 121 129 130 128 127 114 102 106 106 81 78 80 87 91 92 89 91 97 101 109 113 113 113 114 117 118 119 119 117 118 117 116 115 116 120 120 116 110
31 270 59 90 191 190 223 208 247 210 123 126 137 46 312 46 99 119 115 118 111 106 133 119 139 138 91 84 98 121 127 130 136 139 141 143 146 151 154 152 148 145 143 141 139 137 136 137 138 134 130 125 117 109 103 99 98 104 117 121 121 123 120 114 103 100 106 99 80 81 80 79 85 95 96 97 101 104 111 113 112 112 114 118 117 117 116 115 115 113 113 113 114 118 119 116 111
70 183 66 54 214 167 223 200 197 181 146 156 155 112 327 21 112 138 118 113 119 117 159 158 152 135 91 105 111 127 130 134 139 138 140 142 145 150 151 148 147 147 144 142 140 138 138 139 141 136 133 126 113 106 98 97 99 105 117 118 117 119 113 104 100 104 108 98 81 82 84 78 80 89 98 103 104 108 110 109 111 113 115 117 116 116 115 112 110 106 107 109 112 116 118 116 112
147 203 94 284 261 196 222 194 186 180 159 133 125 104 74 27 103 132 118 114 116 130 128 132 133 99 107 131 129 145 138 141 141 139 141 141 145 147 146 147 147 146 145 145 142 140 142 144 147 142 137 125 117 113 103 97 102 108 115 119 118 114 111 103 98 102 105 101 88 79 82 81 81 82 91 97 99 105 108 107 111 114 116 116 117 118 116 109 103 100 101 106 111 111 112 112 108
181 213 101 275 289 250 231 207 178 166 149 126 132 124 94 34 76 107 119 124 106 115 105 116 127 91 149 165 155 156 144 144 142 139 140 138 141 142 142 145 146 147 146 146 144 144 147 151 151 144 139 127 123 123 115 104 99 109 118 120 114 105 104 98 95 100 106 106 101 91 79 73 78 77 82 92 98 104 109 112 113 117 119 118 120 121 114 105 98 95 96 103 112 113 110 108 102
183 46 28 289 283 261 264 202 157 151 145 125 133 137 100 47 54 96 118 129 122 128 106 130 221 126 153 155 137 141 143 144 140 138 137 134 135 135 138 142 146 149 147 147 147 149 152 155 153 147 143 131 128 128 123 116 110 118 121 117 109 100 96 94 95 100 106 106 104 100 90 82 85 84 84 92 98 102 109 115 115 118 120 120 123 120 111 104 101 97 94 98 109 115 113 106 98
134 52 264 280 270 275 314 105 146 140 127 121 139 173 116 90 9 71 79 91 118 124 73 59 32 92 115 118 130 137 141 140 137 136 132 132 133 133 138 143 148 150 150 151 150 152 158 159 154 153 147 135 134 131 126 124 126 133 129 118 111 106 100 99 100 99 98 98 99 97 94 91 94 94 92 97 99 102 110 113 114 116 119 122 121 117 113 107 102 97 92 94 102 109 109 103 95
121 205 229 256 262 280 339 63 99 99 124 131 150 168 112 119 96 97 91 71 87 85 70 75 66 79 100 117 130 136 137 135 136 135 132 135 137 138 141 146 150 152 153 153 153 158 164 162 158 160 153 141 140 133 127 128 135 140 135 122 116 117 110 103 105 101 93 93 95 92 90 88 90 94 96 101 101 103 109 109 112 116 119 122 121 120 116 105 98 94 90 90 98 104 106 100 91
167 215 249 255 259 280 341 55 65 88 133 132 133 96 88 125 129 118 115 99 95 89 88 97 90 95 107 121 133 136 134 133 137 136 135 140 142 144 145 149 151 153 156 155 158 165 169 166 164 169 163 152 147 137 133 137 139 140 139 129 122 122 117 113 113 106 91 91 96 91 91 91 93 96 98 102 102 104 109 110 116 120 123 124 126 125 115 103 98 96 91 88 97 106 105 97 89
186 166 283 259 261 311 90 83 78 106 140 129 123 94 77 103 101 105 124 112 100 113 129 121 117 124 124 131 138 137 134 134 138 137 140 142 144 148 148 151 153 156 160 158 162 169 172 169 169 176 176 163 157 149 141 143 144 142 144 136 131 133 130 131 124 110 96 95 99 96 96 96 95 98 100 102 104 104 106 111 115 117 122 127 133 134 124 114 105 100 97 97 104 109 108 97 86
172 171 234 237 169 8 100 103 103 113 130 123 121 110 102 99 54 111 133 121 118 156 162 151 143 140 136 141 143 140 137 136 139 141 144 144 145 150 150 152 155 159 162 162 165 168 171 172 173 180 184 174 169 163 149 147 152 150 152 146 144 149 145 142 132 117 109 107 108 105 102 99 95 99 104 106 105 105 106 113 117 119 125 129 137 142 137 132 121 108 104 107 113 117 116 106 88
177 208 230 209 153 129 118 110 114 115 105 104 119 122 129 114 63 126 145 140 165 175 165 153 149 145 141 144 143 142 140 140 143 146 148 149 151 153 152 153 157 162 165 167 169 168 170 171 173 184 187 181 178 177 165 157 161 160 159 157 157 159 154 147 137 124 118 117 115 111 106 100 99 102 107 109 108 110 112 116 121 125 130 132 137 143 143 147 142 124 113 111 113 118 118 111 99
204 261 239 205 168 135 130 115 111 113 102 99 117 118 110 95 83 118 136 137 139 134 142 142 143 142 140 141 142 144 145 146 148 152 155 155 157 158 157 158 161 165 168 172 172 169 172 172 175 186 187 183 183 190 188 171 169 171 165 166 169 164 159 152 141 131 126 123 120 117 111 105 105 105 107 108 109 114 115 118 123 127 133 135 138 144 146 150 150 135 114 101 98 107 111 101 92
198 260 275 118 89 105 125 124 116 108 103 105 101 81 68 84 105 110 71 108 118 113 124 130 136 140 139 139 143 146 148 149 151 155 160 161 163 164 162 162 165 168 170 173 174 172 175 177 177 183 186 186 190 200 199 183 178 177 173 175 176 169 166 160 149 140 132 128 126 122 118 113 110 108 109 108 110 114 115 119 123 128 132 134 137 139 142 143 143 129 95 70 63 73 90 94 64
201 202 110 80 66 86 113 120 118 109 106 111 84 69 44 33 76 101 73 124 121 119 126 128 136 142 143 142 144 148 149 150 151 153 159 164 165 165 165 165 167 170 172 174 175 176 179 181 179 182 187 187 194 202 197 188 183 182 187 186 178 173 173 169 158 150 140 136 133 127 123 120 116 112 112 111 112 112 114 119 120 123 124 124 124 125 130 131 129 111 64 36 28 4 309 270 286
192 143 100 97 89 92 101 105 111 105 105 113 88 81 96 345 27 68 72 137 128 125 131 134 143 149 151 146 148 152 152 153 154 154 158 161 164 166 168 169 171 174 176 177 178 179 181 184 183 183 187 189 194 199 197 193 182 184 193 187 180 173 173 176 169 162 153 145 140 133 129 128 124 120 116 113 112 111 113 117 118 118 116 114 116 118 121 119 114 82 23 357 342 311 284 265 265
128 106 90 102 106 94 92 95 101 91 80 114 109 112 144 325 49 88 122 144 131 128 135 143 150 154 156 148 152 157 158 161 158 155 155 158 165 168 170 172 175 178 180 180 182 183 183 186 188 187 188 191 194 197 201 198 184 181 182 180 180 171 170 181 182 175 167 155 146 139 137 136 133 128 123 117 115 115 117 119 118 118 116 118 119 124 123 112 87 46 15 359 346 325 298 270 261
113 108 96 99 105 102 99 101 106 88 54 106 111 104 110 24 44 124 163 151 135 135 142 149 155 158 159 151 153 160 163 164 160 158 159 163 169 170 172 176 177 180 184 185 186 185 183 188 192 190 191 194 196 200 204 202 195 181 171 173 177 171 173 179 174 169 166 160 152 147 145 143 142 137 131 124 123 125 126 127 126 125 125 126 126 129 119 90 61 32 15 6 1 353 340 296 265
117 106 103 108 101 102 102 98 83 23 81 149 113 95 153 142 17 123 158 153 139 139 146 152 159 160 160 155 155 166 168 165 164 166 168 169 172 173 175 179 180 182 186 189 189 185 184 188 193 194 194 198 199 202 205 203 202 189 174 176 178 177 179 174 159 154 156 157 156 153 150 149 148 146 140 133 132 133 135 137 136 135 133 132 130 127 111 80 50 30 22 16 12 4 356 343 304
112 80 101 124 113 110 84 91 324 15 121 183 126 116 215 178 37 101 153 154 142 142 152 155 160 162 162 162 162 172 172 170 171 173 174 174 175 177 177 181 185 184 185 189 189 185 184 187 193 196 197 201 201 202 205 202 204 201 189 185 187 187 186 178 164 157 155 157 160 159 154 152 153 153 147 140 137 137 140 143 144 143 139 138 136 131 118 87 48 32 31 25 19 10 354 343 325
103 88 88 113 144 188 146 131 211 122 128 266 334 154 202 175 173 185 156 160 149 148 158 158 160 165 165 169 172 179 179 181 183 178 180 181 179 179 178 180 185 186 185 187 189 187 186 188 192 195 198 202 202 202 204 203 206 208 201 191 189 193 192 185 175 169 164 161 164 165 159 158 160 158 152 144 138 135 135 141 144 145 144 143 142 139 129 85 46 31 26 22 13 4 349 338 327
91 114 117 62 150 168 142 166 195 176 148 289 323 142 163 170 178 171 160 168 157 153 160 161 163 167 169 175 179 184 185 188 191 188 187 186 183 180 179 180 183 187 188 188 188 187 187 190 192 195 199 202 201 201 203 204 206 208 208 199 190 194 199 193 182 175 168 165 167 169 167 168 168 164 157 148 138 130 125 130 138 141 144 145 147 145 131 63 40 29 21 16 10 1 352 343 334
24 97 143 160 149 156 147 168 215 221 141 212 287 141 119 169 181 157 161 172 162 156 161 164 166 169 172 179 184 186 189 192 199 198 192 189 186 184 182 181 184 189 191 189 187 187 188 188 191 196 198 199 199 199 200 200 202 205 208 206 196 195 203 202 190 182 173 168 169 172 172 174 173 170 163 151 139 129 121 126 135 136 139 145 151 151 127 41 26 24 18 14 10 6 3 359 351
270 73 118 158 143 149 153 160 213 205 152 177 232 148 123 157 165 149 161 170 164 161 165 167 168 171 175 182 187 190 192 195 204 203 197 192 190 189 186 183 185 189 191 192 191 190 189 188 192 196 195 196 197 197 195 195 200 203 205 205 201 197 201 205 201 194 184 176 174 174 174 173 173 174 170 158 145 132 125 131 139 136 136 142 155 156 119 45 17 13 9 12 14 14 14 12 2
169 144 109 117 132 152 169 162 179 173 161 167 153 147 124 138 147 141 158 171 172 170 168 168 172 172 177 184 186 192 196 200 208 206 201 195 192 190 187 184 184 188 191 192 193 191 189 189 193 195 194 195 195 195 192 193 200 200 199 201 202 203 201 205 207 204 197 189 185 181 177 174 173 177 174 165 154 138 132 135 134 129 127 132 144 137 117 73 15 6 359 8 17 21 18 13 7
145 145 106 121 124 149 180 156 159 160 153 157 158 154 141 141 153 150 154 175 181 176 168 169 176 175 179 184 187 192 196 206 209 205 202 197 193 189 185 184 184 188 191 191 191 190 187 188 192 193 193 193 193 195 193 194 199 199 199 199 198 202 202 204 205 205 204 198 194 189 183 178 176 179 177 173 164 148 141 139 132 124 122 125 130 127 115 85 12 8 2 5 16 23 18 6 359
132 132 117 131 124 124 180 145 155 161 150 161 155 137 149 151 159 155 129 162 185 182 175 175 180 181 182 184 187 190 197 208 205 201 200 197 194 187 182 181 181 184 189 190 189 188 187 188 191 192 191 191 193 194 193 194 196 196 198 198 195 196 197 198 197 197 200 200 198 196 190 185 183 182 180 181 176 164 155 149 142 135 133 132 131 125 100 49 12 11 5 3 9 13 15 6 354
110 135 142 139 131 134 148 154 162 169 119 152 142 128 156 162 159 151 92 143 183 184 181 182 183 186 186 187 188 189 197 202 193 192 193 192 189 184 180 178 180 183 186 189 189 188 187 189 192 191 188 190 194 193 191 191 194 194 194 193 191 189 191 194 193 192 194 197 198 197 195 191 189 188 189 191 190 187 182 171 177 176 165 173 172 168 302 2 14 3 355 357 3 1 6 6 357
87 112 137 135 130 114 108 143 141 112 20 145 149 141 161 162 146 124 88 140 167 136 217 202 188 187 189 191 188 187 192 189 184 183 183 184 184 182 180 181 184 185 185 187 188 187 187 189 192 191 187 190 192 192 191 189 189 191 192 190 186 185 190 195 197 196 195 197 197 197 198 196 196 199 200 200 201 204 210 219 232 222 222 238 223 247 267 274 322 328 338 348 357 357 1 1 357
94 119 132 149 170 152 133 135 87 47 9 145 147 139 156 152 118 111 153 254 141 115 315 282 203 194 194 194 189 185 185 181 183 181 178 179 178 179 181 184 184 182 182 185 186 186 187 189 192 190 188 190 190 189 190 188 185 186 188 188 185 187 192 194 197 198 198 198 197 198 201 201 203 206 205 204 206 213 219 227 232 229 236 241 234 256 256 261 278 279 320 346 355 1 5 4 2
240 169 157 155 181 183 103 129 111 71 50 112 135 130 177 169 150 166 187 222 199 133 336 311 246 216 195 192 195 191 186 179 180 180 177 174 174 180 184 185 184 182 184 187 187 187 187 189 191 191 189 190 189 188 189 188 187 187 188 187 187 189 192 192 194 195 196 199 200 202 204 205 206 205 203 207 212 216 219 223 226 222 222 218 218 238 243 250 258 262 297 344 2 4 1 355 357
285 226 192 169 171 149 111 131 135 111 143 182 166 155 215 187 173 177 172 185 191 137 54 272 254 224 187 188 199 197 192 185 180 178 176 176 178 181 183 184 186 187 190 191 190 189 187 187 189 190 189 190 191 190 189 190 190 190 190 189 189 190 190 191 193 194 196 200 203 205 206 207 206 202 202 209 213 215 218 224 226 213 205 204 211 222 232 240 245 253 274 338 7 358 350 345 345
279 243 191 163 156 138 133 146 151 144 176 192 194 175 191 199 187 184 173 184 191 168 187 222 240 224 195 195 197 187 190 190 184 180 176 177 178 177 180 185 190 194 195 193 191 190 189 188 188 189 190 191 193 193 193 193 192 192 191 191 190 190 190 190 191 193 195 199 203 204 206 207 207 203 202 207 210 213 219 227 223 208 202 205 212 220 224 230 236 244 251 316 7 0 358 352 348
242 245 159 147 153 151 152 156 154 137 103 131 200 162 90 246 200 178 170 186 204 197 199 209 220 225 209 203 197 184 187 187 181 181 179 179 178 178 183 190 195 197 195 193 193 193 193 191 190 190 192 193 195 196 196 196 195 193 191 191 192 193 195 192 188 188 191 195 198 201 204 206 207 207 206 207 208 213 221 226 220 211 211 213 217 219 218 219 224 231 231 251 356 20 16 16 27
250 202 137 145 150 149 153 146 127 120 101 137 204 174 102 278 194 152 166 190 213 210 204 206 207 213 208 202 200 190 188 186 181 181 181 181 181 184 188 192 196 196 194 195 195 195 196 195 193 193 195 196 196 195 196 197 199 197 193 192 194 197 202 199 191 190 191 191 193 196 200 204 206 207 208 208 211 217 224 226 222 220 220 222 223 219 215 217 217 217 218 231 237 45 25 29 48
240 99 95 88 82 76 76 86 89 93 83 184 195 184 132 219 190 156 173 197 215 211 204 205 204 203 198 197 204 194 184 184 186 183 183 184 186 189 190 191 194 195 195 196 195 195 196 196 196 196 197 197 196 194 195 197 200 201 198 196 198 200 203 202 198 195 195 194 195 197 198 202 205 206 208 211 217 225 228 229 229 227 225 226 227 224 223 221 213 207 215 229 227 215 12 10 21
119 91 85 68 58 52 45 18 49 77 322 228 189 187 125 109 213 188 185 202 207 200 195 198 198 193 191 195 202 196 182 181 185 185 186 187 188 188 187 188 192 193 193 192 192 195 195 195 196 196 197 197 195 195 196 197 200 204 205 205 206 205 202 201 199 197 198 198 200 202 202 203 203 203 207 213 219 225 228 230 233 230 226 225 226 226 230 224 211 208 221 231 228 226 292 322 326
96 90 108 83 41 23 51 1 15 97 270 260 178 171 111 125 241 212 218 269 202 191 192 190 189 185 187 189 183 192 188 178 179 181 184 183 182 182 183 187 189 188 189 190 191 193 194 194 194 193 194 195 195 196 197 199 201 204 208 210 213 213 208 203 201 200 202 203 204 204 204 205 205 204 205 209 214 219 224 229 233 230 226 227 226 225 226 219 210 211 223 229 225 230 265 278 281
97 108 116 90 46 6 66 349 324 169 265 299 153 149 118 257 235 202 238 260 249 212 196 185 184 182 182 178 170 179 180 173 175 177 177 176 174 178 182 184 185 187 190 191 191 192 193 194 194 193 193 195 197 198 199 201 204 207 211 216 222 222 218 213 209 207 206 207 207 205 204 206 207 206 205 207 209 214 223 228 230 231 228 228 225 219 217 213 211 215 225 230 226 237 266 266 264
134 141 128 106 120 92 102 195 284 241 269 334 133 154 243 279 207 264 259 249 251 229 197 180 180 180 172 163 161 159 153 164 173 176 176 178 180 181 183 184 186 191 193 193 193 193 194 193 195 196 196 197 198 201 203 206 209 212 215 221 229 228 225 222 218 215 212 211 210 208 209 211 210 209 208 208 208 211 220 226 230 234 231 229 225 218 215 213 215 221 230 236 238 252 269 265 263
165 162 138 139 156 144 162 188 190 206 223 37 98 171 241 234 178 301 300 74 358 266 176 157 165 168 146 143 144 130 127 140 166 179 180 184 186 184 184 186 189 193 194 194 195 196 196 196 198 199 198 198 199 202 205 208 210 212 215 221 229 231 228 226 224 224 221 218 215 214 217 218 216 215 212 212 212 213 219 224 230 234 231 231 228 221 218 218 221 227 234 241 245 255 266 262 263
199 162 116 151 187 153 135 163 156 143 124 85 98 207 246 192 294 305 95 89 52 58 120 134 153 157 136 145 150 136 160 137 148 178 184 186 188 186 186 188 191 194 195 195 196 198 201 202 202 203 203 201 201 203 206 208 209 210 214 220 226 229 228 227 228 227 226 226 227 227 227 226 223 219 216 216 215 218 221 224 229 234 233 233 231 226 225 225 227 232 238 243 244 250 260 259 262
148 144 156 193 166 128 117 66 51 98 107 100 158 249 276 27 322 279 115 86 69 89 126 145 159 163 148 153 158 149 161 133 129 168 182 186 187 187 189 190 191 192 195 198 199 202 204 206 206 206 205 204 203 205 207 208 208 209 214 219 223 225 225 226 228 228 228 233 238 240 239 236 231 225 221 220 220 222 225 226 228 232 234 234 232 230 230 229 231 238 242 244 244 249 257 257 260
128 178 192 157 59 82 107 98 30 50 105 215 318 297 268 97 309 232 119 89 71 73 120 148 157 166 162 156 158 158 149 130 112 125 156 181 188 190 191 192 193 193 196 200 202 204 206 208 210 209 207 207 206 207 208 210 210 209 213 218 220 222 224 227 228 227 232 239 245 246 243 242 239 233 228 227 230 230 230 229 228 228 230 231 230 231 233 235 238 243 246 246 247 253 257 256 256
130 172 163 126 126 183 108 118 140 102 115 231 313 331 280 173 205 218 136 114 95 71 93 148 158 170 172 160 158 159 142 134 133 114 127 170 187 193 193 192 194 195 198 201 202 205 207 209 213 214 213 213 211 210 211 212 214 213 215 218 220 221 223 227 228 228 235 244 250 248 246 246 245 240 239 241 243 242 236 231 230 230 227 224 225 228 235 243 246 248 250 251 254 258 258 255 254
46 127 140 103 126 165 151 135 155 134 139 197 116 339 271 204 225 209 147 130 119 109 117 150 166 179 176 166 165 165 153 149 152 137 123 149 176 193 196 193 194 195 197 199 199 204 209 211 214 215 215 215 213 213 214 214 217 217 218 219 222 224 225 228 230 231 236 243 249 250 248 250 250 246 248 253 254 251 243 237 236 236 231 223 223 228 237 245 250 253 256 260 264 265 263 260 258
103 134 158 134 72 126 128 80 64 122 136 153 125 274 263 240 267 209 141 126 127 136 137 120 153 184 175 171 169 165 166 163 156 145 129 113 138 173 191 193 194 194 195 195 198 204 208 211 214 214 214 215 216 217 217 218 220 221 221 221 223 226 228 230 232 233 235 238 243 248 248 250 252 251 253 256 256 254 250 248 247 245 238 230 229 233 240 247 252 256 260 265 269 268 265 264 263
151 161 175 173 134 119 117 95 317 94 120 150 153 200 265 275 285 188 131 125 128 134 126 98 94 123 144 163 166 161 169 171 157 137 105 63 64 113 166 183 188 191 192 194 198 202 205 208 213 214 214 216 218 220 220 221 222 223 225 226 227 229 231 233 235 236 235 236 237 242 246 249 250 252 256 258 257 256 256 257 256 254 248 242 242 246 250 253 254 257 261 265 269 269 268 267 267